WV8MT Weather Reports


time (UTC)temp
C
wind
direction
speed
KPH
gust
KPH
rain 1hr
cm
rain 24hr
cm
rain mn
cm
humidity
%
barometer
mb
20260510061019 6 214 3.2 9.7 0.00 0.00 0.00 96 1016.8
20260510060024 7 189 4.8 11.3 0.00 0.00 0.00 94 1016.8
20260510055027 7 205 6.4 8.0 0.00 0.00 0.00 96 1016.8
20260510054032 7 217 4.8 9.7 0.00 0.00 0.00 96 1016.9
20260510053017 7 232 3.2 6.4 0.00 0.00 0.00 96 1016.9
20260510052021 7 234 1.6 4.8 0.00 0.00 0.00 95 1016.9
20260510051025 7 231 4.8 6.4 0.00 0.00 0.00 94 1016.9
20260510050030 7 227 6.4 9.7 0.00 0.00 0.00 93 1017.0
20260510045016 7 227 3.2 11.3 0.00 0.00 0.00 92 1017.1
20260510044020 8 0.0 0.0 0.00 0.00 0.00 91 1017.1
20260510043024 8 0.0 0.0 0.00 0.00 0.00 92 1016.9
20260510042029 7 0.0 0.0 0.00 0.00 0.00 93 1016.9
20260510041031 8 0.0 0.0 0.00 0.00 0.00 92 1016.8
20260510040019 8 0.0 0.0 0.00 0.00 0.00 92 1016.9
20260510035022 8 0.0 0.0 0.00 0.00 0.00 92 1016.8
20260510034026 8 0.0 0.0 0.00 0.00 0.00 91 1016.8
20260510033029 8 0.0 0.0 0.00 0.00 0.00 91 1016.7
20260510032015 7 0.0 0.0 0.00 0.00 0.00 95 1016.7
20260510031040 8 0.0 0.0 0.00 0.00 0.00 95 1016.7
20260510030023 8 0.0 0.0 0.00 0.00 0.00 94 1016.7
20260510025028 8 0.0 0.0 0.00 0.00 0.00 94 1016.6
20260510024046 8 0.0 0.0 0.00 0.00 0.00 94 1016.5
20260510023018 8 0.0 0.0 0.00 0.00 0.00 92 1016.4
20260510022023 9 0.0 0.0 0.00 0.00 0.00 91 1016.2
20260510021101 9 0.0 0.0 0.00 0.00 0.00 90 1016.0
20260510020018 10 0.0 0.0 0.00 0.00 0.00 89 1015.7
20260510015016 10 0.0 0.0 0.00 0.00 0.00 87 1015.5
20260510014020 10 211 1.6 3.2 0.00 0.00 0.00 85 1015.4
20260510013024 11 225 0.0 3.2 0.00 0.00 0.00 83 1015.3
20260510012028 11 205 3.2 3.2 0.00 0.00 0.00 83 1015.3
20260510011032 12 211 3.2 3.2 0.00 0.00 0.00 80 1015.1
20260510010018 12 195 1.6 3.2 0.00 0.00 0.00 79 1014.8
20260510005022 12 219 3.2 3.2 0.00 0.00 0.00 78 1014.7
20260510004026 13 203 0.0 1.6 0.00 0.00 0.00 76 1014.4
20260510003030 14 0.0 0.0 0.00 0.00 0.00 71 1014.3
20260510002037 15 0.0 0.0 0.00 0.00 0.00 68 1014.1
20260510001040 16 0.0 0.0 0.00 0.00 0.00 64 1013.8
20260510000024 16 0.0 0.0 0.00 0.00 0.00 62 1013.7
20260509235048 18 0.0 1.6 0.00 0.00 0.00 58 1013.7
20260509234052 18 153 4.8 8.0 0.00 0.00 0.00 53 1013.9
20260509233018 19 284 4.8 12.9 0.00 0.00 0.00 51 1013.9
20260509232022 20 191 4.8 19.3 0.00 0.00 0.00 52 1013.8
20260509231027 21 12 6.4 11.3 0.00 0.00 0.00 47 1013.7
20260509230051 22 0.0 0.0 0.00 0.00 0.00 45 1013.7
20260509225017 21 265 1.6 12.9 0.00 0.00 0.00 47 1013.7
20260509224101 21 237 4.8 12.9 0.00 0.00 0.00 47 1013.6
20260509223025 21 187 11.3 14.5 0.00 0.00 0.00 45 1013.5
20260509222035 21 175 14.5 19.3 0.00 0.00 0.00 43 1013.5
20260509221034 21 212 8.0 12.9 0.00 0.00 0.00 44 1013.4
20260509220019 21 198 11.3 19.3 0.00 0.00 0.00 44 1013.3
20260509215023 21 200 9.7 19.3 0.00 0.00 0.00 44 1013.3
20260509214028 22 212 1.6 9.7 0.00 0.00 0.00 44 1013.2
20260509213024 22 280 1.6 8.0 0.00 0.00 0.00 44 1013.2
20260509212016 22 14 1.6 6.4 0.00 0.00 0.00 44 1013.0
20260509211021 21 183 11.3 14.5 0.00 0.00 0.00 44 1012.7
20260509210019 22 182 9.7 14.5 0.00 0.00 0.00 44 1012.9
20260509205017 22 223 6.4 11.3 0.00 0.00 0.00 44 1012.7
20260509204033 22 240 8.0 12.9 0.00 0.00 0.00 43 1012.7
20260509203019 22 216 11.3 19.3 0.00 0.00 0.00 44 1012.7
20260509202028 22 194 14.5 25.7 0.00 0.00 0.00 44 1012.7
20260509201027 22 220 4.8 16.1 0.00 0.00 0.00 44 1012.5
20260509200032 22 191 4.8 16.1 0.00 0.00 0.00 45 1012.5
20260509195058 22 186 12.9 14.5 0.00 0.00 0.00 44 1012.7
20260509194041 23 201 11.3 20.9 0.00 0.00 0.00 41 1012.9
20260509193025 23 223 19.3 33.8 0.00 0.00 0.00 39 1012.9
20260509192029 22 196 12.9 17.7 0.00 0.00 0.00 43 1013.0
20260509191015 23 179 17.7 27.4 0.00 0.00 0.00 41 1013.0
20260509190019 23 194 9.7 16.1 0.00 0.00 0.00 44 1013.0
20260509185023 22 178 11.3 17.7 0.00 0.00 0.00 47 1013.1
20260509184027 22 214 8.0 14.5 0.00 0.00 0.00 47 1013.1
20260509183031 22 158 16.1 24.1 0.00 0.00 0.00 47 1013.1
20260509182017 21 14 4.8 9.7 0.00 0.00 0.00 53 1013.3
20260509181022 20 58 12.9 17.7 0.00 0.00 0.00 58 1013.6
20260509180026 22 288 8.0 16.1 0.00 0.00 0.00 50 1013.7
20260509175030 22 179 9.7 16.1 0.00 0.00 0.00 51 1013.9
20260509174017 20 204 8.0 11.3 0.00 0.00 0.00 55
20260509173040 19 234 3.2 9.7 0.00 0.00 0.00 57 1014.1
20260509172025 18 188 11.3 14.5 0.00 0.00 0.00 56 1014.1
20260509171028 20 199 11.3 14.5 0.00 0.00 0.00 55 1013.9
20260509170052 19 198 12.9 17.7 0.00 0.00 0.00 55 1013.9
20260509165018 19 225 8.0 11.3 0.00 0.00 0.00 55 1013.9
20260509164022 18 194 9.7 11.3 0.00 0.00 0.00 55 1013.9
20260509163046 19 204 11.3 16.1 0.00 0.00 0.00 55 1013.9
20260509162024 20 171 16.1 27.4 0.00 0.00 0.00 52 1013.8
20260509161016 21 206 6.4 11.3 0.00 0.00 0.00 52 1014.1
20260509160020 21 224 11.3 16.1 0.00 0.00 0.00 53 1014.1
20260509155018 20 198 11.3 16.1 0.00 0.00 0.00 53 1014.1
20260509154016 20 187 6.4 11.3 0.00 0.00 0.00 53 1014.2
20260509153032 20 198 8.0 9.7 0.00 0.00 0.00 54 1014.2
20260509152038 19 202 6.4 9.7 0.00 0.00 0.00 56 1014.1
20260509151021 18 196 1.6 6.4 0.00 0.00 0.00 57 1014.3
20260509150025 18 159 11.3 16.1 0.00 0.00 0.00 58 1014.5
20260509145036 18 192 8.0 12.9 0.00 0.00 0.00 57 1014.1
20260509144015 20 184 6.4 11.3 0.00 0.00 0.00 56 1014.2
20260509143019 20 201 9.7 12.9 0.00 0.00 0.00 57 1014.3
20260509142023 18 207 9.7 14.5 0.00 0.00 0.00 61 1014.3
20260509141049 17 184 11.3 14.5 0.00 0.00 0.00 64 1014.7
20260509140032 16 191 12.9 20.9 0.00 0.00 0.00 67 1014.9
20260509135043 15 188 14.5 20.9 0.00 0.00 0.00 69 1015.3
20260509134022 15 187 14.5 19.3 0.00 0.00 0.00 71 1015.4
20260509133026 14 191 14.5 17.7 0.00 0.00 0.00 71 1015.4
20260509132030 14 206 12.9 17.7 0.00 0.00 0.00 71 1015.5
20260509131016 13 177 14.5 20.9 0.00 0.00 0.00 72 1015.5
20260509130020 13 211 11.3 14.5 0.00 0.00 0.00 73 1015.6
20260509125045 12 205 16.1 17.7 0.00 0.00 0.00 73 1015.4
20260509124028 12 192 9.7 14.5 0.00 0.00 0.00 75 1015.3
20260509123032 11 185 8.0 9.7 0.00 0.00 0.00 76 1015.3
20260509122019 11 179 6.4 9.7 0.00 0.00 0.00 77 1015.4
20260509121022 11 171 3.2 3.2 0.00 0.00 0.00 78 1015.5
20260509120026 10 155 3.2 6.4 0.00 0.00 0.00 79 1015.5
20260509115030 10 150 3.2 4.8 0.00 0.00 0.00 78 1015.6
20260509114016 10 152 3.2 6.4 0.00 0.00 0.00 79 1015.6
20260509113020 9 153 6.4 11.3 0.00 0.00 0.00 80 1015.6
20260509112044 9 163 8.0 11.3 0.00 0.00 0.00 80 1015.6
20260509110101 8 148 1.6 3.2 0.00 0.00 0.00 82 1015.5
20260509105018 8 147 3.2 4.8 0.00 0.00 0.00 84 1015.5
20260509104037 8 149 4.8 8.0 0.00 0.00 0.00 84 1015.6
20260509103026 8 160 6.4 9.7 0.00 0.00 0.00 85 1015.6
20260509102030 7 165 1.6 3.2 0.00 0.00 0.00 86 1015.5
20260509101016 7 113 0.0 4.8 0.00 0.00 0.00 90 1015.5
20260509100020 6 0.0 0.0 0.00 0.00 0.00 90 1015.6
20260509095024 6 158 0.0 3.2 0.00 0.00 0.00 93 1015.6
20260509094028 6 0.0 0.0 0.00 0.00 0.00 93 1015.6
20260509093032 6 0.0 0.0 0.00 0.00 0.00 91 1015.8
20260509092018 7 0.0 0.0 0.00 0.00 0.00 91 1015.8
20260509091022 7 0.0 0.0 0.00 0.00 0.00 92 1015.8
20260509090026 7 0.0 0.0 0.00 0.00 0.00 92 1015.8
20260509085031 7 0.0 0.0 0.00 0.00 0.00 91 1015.9
20260509084038 7 0.0 0.0 0.00 0.00 0.00 92 1015.9
20260509083021 7 0.0 0.0 0.00 0.00 0.00 90 1015.9
20260509082025 7 158 0.0 3.2 0.00 0.00 0.00 89 1016.0
20260509081029 7 0.0 0.0 0.00 0.00 0.00 91 1015.9
20260509080033 7 0.0 0.0 0.00 0.00 0.00 92 1016.0
20260509075039 7 0.0 0.0 0.00 0.00 0.00 91 1016.2
20260509074022 6 0.0 0.0 0.00 0.00 0.00 92 1016.2
20260509073026 6 0.0 0.0 0.00 0.00 0.00 92 1016.3
20260509072030 6 0.0 0.0 0.00 0.00 0.00 92 1016.4
20260509071016 6 0.0 0.0 0.00 0.00 0.00 93 1016.4
20260509070020 6 0.0 0.0 0.00 0.00 0.00 94 1016.4
20260509065024 5 0.0 0.0 0.00 0.00 0.00 94 1016.6
20260509064028 5 0.0 0.0 0.00 0.00 0.00 94 1016.6
20260509063026 5 210 1.6 3.2 0.00 0.00 0.00 93 1016.6
20260509062018 6 218 3.2 3.2 0.00 0.00 0.00 92 1016.7